User: anonymous   Login
Location: Cella
(44.7333°N, 10.5667°E)
Time: 20:21:58
(UTC+00:00)
Language:

Sich 1 - Orbit

View from above orbital plane
View from above orbital plane
View from above satellite
View from above satellite

Ground track
Ground track

The orbit data is extracted from the following two-line orbital elements,

1 23657U 95046A   21136.71251241  .00000198  00000-0  19649-4 0  9994
2 23657  82.5275 357.4338 0022890  31.9766 328.2834 14.86286897389470
Epoch (UTC): 16 May 2021 17:06:01
Eccentricity: 0.0022890
inclination: 82.5275°
perigee height: 593 km
apogee height: 625 km
right ascension of ascending node: 357.4338°
argument of perigee: 31.9766°
revolutions per day: 14.86286897
mean anomaly at epoch: 328.2834°
orbit number at epoch: 38947

The dashed part of the orbit path shows where the satellite is in the earth's shadow,  

DLR